Location: Corralito
(10.2667°N, 66.9500°W)
Time: 03:57:34
(UTC+00:00)

Cosmos 1331 Rocket - Pass Details

Date: 06 December 2023
Orbit: 748 x 775 km, 74.0° (Epoch: 22 February)

Event Time Altitude Azimuth Distance (km) Brightness Sun altitude
Rises 22:18:48 0° 169° (SSE) 3,235 7.4 -3.9°
Reaches altitude 10° 22:21:31 10° 156° (SSE) 2,311 6.5 -4.5°
Maximum altitude 22:25:50 26° 100° (E) 1,485 5.1 -5.5°
Drops below altitude 10° 22:30:09 10° 45° (NE) 2,316 5.9 -6.5°
Enters shadow 22:31:58 - 36° (NE) 2,925 6.5 -6.9°
